Regional Weather Roundup
Issued by NWS

Home | Current Version | Previous Version | Graphics & Text | Print | Product List | Glossary On
Versions: 1 2 3 4 5 6 7 8 9 10 11 12 13 14 15 16 17 18 19 20 21 22 23 24 25 26 27 28 29 30 31 32 33 34 35 36 37 38 39 40 41 42 43 44 45 46 47 48 49 50
000
ASUS43 KOAX 052310
RWRNE

WEATHER ROUNDUP FOR NEBRASKA
NATIONAL WEATHER SERVICE OMAHA NE
600 PM CDT THU MAY 05 2016

NOTES: SATELLITE DATA IS BEING USED TO AUGMENT CLOUD COVER ABOVE
       12000 FEET.
       "FAIR" INDICATES FEW OR NO CLOUDS BELOW 12,000 FEET WITH NO
       SIGNIFICANT WEATHER AND/OR OBSTRUCTIONS TO VISIBILITY.

  * THESE STATIONS DO NOT REPORT WEATHER SUCH AS RAIN...SNOW OR FOG.

NEZ001>004-019>022-054>056-060000-
NEBRASKA PANHANDLE

CITY           SKY/WX    TMP DP  RH WIND       PRES   REMARKS
SCOTTSBLUFF    MOSUNNY   83  37  19 N3        29.94F
ALLIANCE       MOSUNNY   82  41  23 W8        29.94F
CHADRON        CLOUDY    83  44  25 S6        29.88F
KIMBALL        CLOUDY    78  32  18 S12       30.01F
SIDNEY         CLOUDY    82  34  17 SW13      30.00F
$$

NEZ057>060-069>072-079>082-060000-
SOUTHWEST NEBRASKA

CITY           SKY/WX    TMP DP  RH WIND       PRES   REMARKS
NORTH PLATTE   SUNNY     80  47  31 S15G21    29.97F
IMPERIAL       CLOUDY    81  43  26 S16       29.98F
MCCOOK         CLOUDY    78  47  33 S16       29.99F
OGALLALA       CLOUDY    79  40  25 S13G20    29.97F
$$

NEZ005>010-023>029-035>040-094-060000-
NORTH CENTRAL NEBRASKA

CITY           SKY/WX    TMP DP  RH WIND       PRES   REMARKS
VALENTINE      SUNNY     84  39  20 S16       29.89F
AINSWORTH      SUNNY     82  44  25 S14       29.94S
BROKEN BOW     LGT RAIN  81  52  36 S14       29.98F
O`NEILL        SUNNY     81  44  27 S9        29.96F
ORD            SUNNY     79  43  27 S10       29.97F
THEDFORD       SUNNY     84  45  25 S14G24    29.96F
$$

NEZ041-046>049-061>064-073>077-083>087-060000-
SOUTH CENTRAL NEBRASKA

CITY           SKY/WX    TMP DP  RH WIND       PRES   REMARKS
GRAND ISLAND   SUNNY     80  41  24 SW6       30.00F
AURORA         SUNNY     80  37  21 S6        29.99F
HASTINGS       SUNNY     78  41  26 S8        30.00F
HEBRON         SUNNY     79  35  20 S6        30.01F
HOLDREGE       SUNNY     78  43  28 S9        30.01F
KEARNEY *      SUNNY     79  45  29 S10G20    30.01F
YORK           SUNNY     81  32  17 S5        30.00F
$$

NEZ011>018-030>034-042>045-060000-
NORTHEAST NEBRASKA

CITY           SKY/WX    TMP DP  RH WIND       PRES   REMARKS
NORFOLK        SUNNY     80  39  23 S10       29.97F
ALBION         SUNNY     79  42  26 W7        29.98F
BLAIR          SUNNY     78  40  25 S6        30.01F
COLUMBUS *     SUNNY     81  37  21 S7        29.99F
FREMONT        SUNNY     76  41  28 SE10      30.00F
TEKAMAH        SUNNY     77  43  29 SE10      29.98F
WAYNE          SUNNY     79  46  31 SW9       29.97F
$$

NEZ050>053-065>068-078-088>093-060000-
SOUTHEAST NEBRASKA

CITY           SKY/WX    TMP DP  RH WIND       PRES   REMARKS
LINCOLN        SUNNY     79  38  22 VRB5      30.01F
OMAHA EPPLEY   PTSUNNY   77  40  26 SE8       30.00F
BEATRICE       SUNNY     78  40  26 CALM      30.01F
FALLS CITY     SUNNY     74  42  31 S8        30.02F
NEBRASKA CITY    N/A     74  40  29 S5        30.02F
PLATTSMOUTH    SUNNY     77  39  25 S3        30.01F
$$

NEZ044-045-051>053-067-060000-
OMAHA AREA

CITY           SKY/WX    TMP DP  RH WIND       PRES   REMARKS
OMAHA EPPLEY   PTSUNNY   77  40  26 SE8       30.00F
BLAIR          SUNNY     78  40  25 S6        30.01F
FREMONT        SUNNY     76  41  28 SE10      30.00F
MILLARD        SUNNY     77  40  26 CALM      30.00F
OFFUTT AFB     SUNNY     77  40  26 CALM      30.00F
PLATTSMOUTH    SUNNY     77  39  25 S3        30.01F
WAHOO          FAIR      79  40  24 SE8       30.00S
$$




USA.gov is the U.S. government's official web portal to all federal, state and local government web resources and services.